FW6073 Weather Reports


Display with metric or nautical units.
time (UTC)temp
F
wind
direction
speed
MPH
gust
MPH
rain 1hr
in
rain 24hr
in
rain mn
in
humidity
%
barometer
mb
20260503180003 61 231 2.0 8.0 0.00 0.00 0.00 40 1010.4
20260503175923 61 228 2.0 8.0 0.00 0.00 0.00 44 1010.5
20260503175823 61 231 2.0 8.0 0.00 0.00 0.00 43 1010.5
20260503175702 61 231 2.0 8.0 0.00 0.00 0.00 40 1010.5
20260503175602 61 230 2.0 8.0 0.00 0.00 0.00 41 1010.6
20260503175523 61 229 2.0 8.0 0.00 0.00 0.00 39 1010.6
20260503175402 61 229 2.0 7.0 0.00 0.00 0.00 42 1010.5
20260503175304 61 226 2.0 7.0 0.00 0.00 0.00 40 1010.6
20260503175202 61 222 2.0 7.0 0.00 0.00 0.00 39 1010.6
20260503175102 61 224 2.0 7.0 0.00 0.00 0.00 42 1010.6
20260503175002 61 226 2.0 7.0 0.00 0.00 0.00 44 1010.7
20260503174902 61 229 2.0 8.0 0.00 0.00 0.00 43 1010.7
20260503174802 61 226 2.0 8.0 0.00 0.00 0.00 40 1010.6
20260503174723 61 226 2.0 8.0 0.00 0.00 0.00 40 1010.6
20260503174602 61 227 2.0 8.0 0.00 0.00 0.00 42 1010.7
20260503174502 61 229 2.0 8.0 0.00 0.00 0.00 42 1010.6
20260503174402 61 228 2.0 8.0 0.00 0.00 0.00 41 1010.6
20260503174303 61 229 2.0 8.0 0.00 0.00 0.00 39 1010.8
20260503174202 61 230 2.0 8.0 0.00 0.00 0.00 42 1010.8
20260503174102 61 229 2.0 9.0 0.00 0.00 0.00 41 1010.7
20260503174002 61 228 2.0 9.0 0.00 0.00 0.00 40 1010.8
20260503173902 61 227 2.0 9.0 0.00 0.00 0.00 41 1010.8
20260503173802 61 227 2.0 9.0 0.00 0.00 0.00 42 1010.8
20260503173723 61 226 2.0 9.0 0.00 0.00 0.00 40 1010.8
20260503173602 62 227 2.0 9.0 0.00 0.00 0.00 40 1010.8
20260503173502 62 226 2.0 9.0 0.00 0.00 0.00 41 1010.8
20260503173402 61 228 2.0 9.0 0.00 0.00 0.00 42 1010.8
20260503173302 61 225 2.0 9.0 0.00 0.00 0.00 43 1010.8
20260503173202 61 226 3.0 9.0 0.00 0.00 0.00 44 1010.8
20260503173102 61 225 3.0 8.0 0.00 0.00 0.00 44 1010.8
20260503173002 61 227 3.0 8.0 0.00 0.00 0.00 41 1010.8
20260503172902 61 228 3.0 8.0 0.00 0.00 0.00 42 1010.8
20260503172823 61 228 3.0 8.0 0.00 0.00 0.00 43 1010.9
20260503172702 60 233 3.0 8.0 0.00 0.00 0.00 41 1010.9
20260503172602 60 231 3.0 8.0 0.00 0.00 0.00 44 1010.9
20260503172523 60 232 3.0 8.0 0.00 0.00 0.00 40 1011.0
20260503172402 61 232 3.0 8.0 0.00 0.00 0.00 41 1011.0
20260503172304 61 238 2.0 8.0 0.00 0.00 0.00 42 1011.0
20260503172202 61 237 2.0 7.0 0.00 0.00 0.00 44 1010.9
20260503172102 61 235 2.0 7.0 0.00 0.00 0.00 44 1010.9
20260503172002 60 235 2.0 7.0 0.00 0.00 0.00 42 1010.9
20260503171902 60 239 2.0 7.0 0.00 0.00 0.00 41 1011.0
20260503171802 60 239 2.0 6.0 0.00 0.00 0.00 42 1011.0
20260503171702 60 236 2.0 6.0 0.00 0.00 0.00 42 1011.1
20260503171623 60 237 2.0 6.0 0.00 0.00 0.00 41 1011.1
20260503171523 60 238 2.0 6.0 0.00 0.00 0.00 42 1011.0
20260503171402 60 244 2.0 6.0 0.00 0.00 0.00 40 1011.1
20260503171302 60 238 2.0 6.0 0.00 0.00 0.00 42 1011.1
20260503171202 60 244 2.0 6.0 0.00 0.00 0.00 43 1011.1
20260503171102 60 247 2.0 6.0 0.00 0.00 0.00 42 1011.1
20260503171023 60 246 2.0 6.0 0.00 0.00 0.00 40 1011.2
20260503170902 60 245 2.0 6.0 0.00 0.00 0.00 41 1011.1
20260503170802 60 243 2.0 6.0 0.00 0.00 0.00 41 1011.1
20260503170702 60 240 2.0 6.0 0.00 0.00 0.00 41 1011.2
20260503170602 60 240 2.0 6.0 0.00 0.00 0.00 40 1011.2
20260503170523 60 236 2.0 6.0 0.00 0.00 0.00 40 1011.3
20260503170402 60 228 2.0 6.0 0.00 0.00 0.00 40 1011.1
20260503170302 60 231 2.0 6.0 0.00 0.00 0.00 43 1011.1
20260503170202 60 231 2.0 6.0 0.00 0.00 0.00 42 1011.1
20260503151002 54 246 2.0 8.0 0.00 0.00 0.00 44 1012.5
20260503150923 54 246 2.0 8.0 0.00 0.00 0.00 44 1012.5
20260503150802 54 245 2.0 8.0 0.00 0.00 0.00 44 1012.5
20260503150702 55 249 2.0 8.0 0.00 0.00 0.00 43 1012.5
20260503150602 55 254 1.0 8.0 0.00 0.00 0.00 42 1012.5
20260503150502 55 247 1.0 8.0 0.00 0.00 0.00 42 1012.4
20260503150402 55 255 1.0 6.0 0.00 0.00 0.00 43 1012.4
20260503150302 55 254 1.0 6.0 0.00 0.00 0.00 42 1012.4
20260503150202 56 242 1.0 5.0 0.00 0.00 0.00 43 1012.4
20260503150123 56 245 1.0 5.0 0.00 0.00 0.00 44 1012.4
20260503140302 56 261 2.0 6.0 0.00 0.00 0.00 43 1012.5
20260503140202 56 255 2.0 7.0 0.00 0.00 0.00 42 1012.5
20260503131402 51 226 1.0 5.0 0.00 0.00 0.00 50 1012.7
20260503131302 51 226 1.0 5.0 0.00 0.00 0.00 50 1012.7
20260503131202 51 229 1.0 5.0 0.00 0.00 0.00 51 1012.7
20260503131123 51 231 1.0 5.0 0.00 0.00 0.00 51 1012.7
20260503131002 51 230 1.0 5.0 0.00 0.00 0.00 50 1012.7
20260503130902 51 227 1.0 5.0 0.00 0.00 0.00 50 1012.7
20260503130802 50 224 1.0 5.0 0.00 0.00 0.00 51 1012.7
20260503130702 50 224 1.0 5.0 0.00 0.00 0.00 51 1012.7
20260503130602 50 223 1.0 5.0 0.00 0.00 0.00 53 1012.7
20260503130502 50 229 1.0 4.0 0.00 0.00 0.00 52 1012.7
20260503130402 50 234 1.0 4.0 0.00 0.00 0.00 52 1012.7
20260503130302 50 232 1.0 4.0 0.00 0.00 0.00 51 1012.7
20260503130202 50 236 1.0 4.0 0.00 0.00 0.00 52 1012.7
20260503130123 50 236 1.0 4.0 0.00 0.00 0.00 52 1012.7
20260503120202 40 235 0.0 1.0 0.00 0.00 0.00 70 1013.0
20260503110802 32 75 0.0 1.0 0.00 0.00 0.00 90 1012.8
20260503110702 32 75 0.0 1.0 0.00 0.00 0.00 90 1012.8
20260503110602 32 75 0.0 1.0 0.00 0.00 0.00 90 1012.9
20260503110523 32 75 0.0 1.0 0.00 0.00 0.00 90 1012.9
20260503110402 32 0 0.0 0.0 0.00 0.00 0.00 90 1012.8
20260503110302 32 0 0.0 0.0 0.00 0.00 0.00 90 1012.9
20260503110202 32 0 0.0 0.0 0.00 0.00 0.00 90 1012.9
20260503100202 29 0 0.0 0.0 0.00 0.00 0.00 91 1013.1
20260503090502 29 0 0.0 0.0 0.00 0.00 0.00 90 1013.6
20260503090402 29 0 0.0 0.0 0.00 0.00 0.00 90 1013.6
20260503090302 29 0 0.0 0.0 0.00 0.00 0.00 90 1013.6
20260503090223 29 0 0.0 0.0 0.00 0.00 0.00 90 1013.6
20260503081602 30 0 0.0 0.0 0.00 0.00 0.00 90 1013.9
20260503081502 30 0 0.0 0.0 0.00 0.00 0.00 90 1013.9
20260503081402 30 0 0.0 0.0 0.00 0.00 0.00 90 1013.9
20260503081302 30 0 0.0 0.0 0.00 0.00 0.00 90 1013.9
20260503081202 30 0 0.0 0.0 0.00 0.00 0.00 90 1013.9
20260503081102 30 0 0.0 0.0 0.00 0.00 0.00 90 1013.9
20260503081002 30 0 0.0 0.0 0.00 0.00 0.00 90 1013.9
20260503080902 30 0 0.0 0.0 0.00 0.00 0.00 90 1013.9
20260503080803 30 0 0.0 0.0 0.00 0.00 0.00 90 1013.9
20260503080702 30 0 0.0 0.0 0.00 0.00 0.00 90 1013.9
20260503080623 30 0 0.0 0.0 0.00 0.00 0.00 90 1013.9
20260503080502 30 0 0.0 0.0 0.00 0.00 0.00 90 1013.9
20260503080402 30 0 0.0 0.0 0.00 0.00 0.00 89 1013.9
20260503080302 30 0 0.0 0.0 0.00 0.00 0.00 90 1013.9
20260503080202 30 0 0.0 0.0 0.00 0.00 0.00 89 1013.9
20260503072902 30 0 0.0 0.0 0.00 0.00 0.00 89 1014.0
20260503072802 30 0 0.0 0.0 0.00 0.00 0.00 89 1014.0
20260503072702 30 0 0.0 0.0 0.00 0.00 0.00 89 1014.0
20260503072602 30 0 0.0 0.0 0.00 0.00 0.00 89 1014.1
20260503072523 30 0 0.0 0.0 0.00 0.00 0.00 89 1014.1
20260503072423 30 0 0.0 0.0 0.00 0.00 0.00 89 1014.0
20260503072305 30 0 0.0 0.0 0.00 0.00 0.00 89 1014.0
20260503072202 30 0 0.0 0.0 0.00 0.00 0.00 89 1014.1
20260503072102 30 0 0.0 0.0 0.00 0.00 0.00 89 1014.1
20260503072002 30 0 0.0 0.0 0.00 0.00 0.00 89 1014.1
20260503071902 30 0 0.0 0.0 0.00 0.00 0.00 89 1014.1
20260503071802 30 0 0.0 0.0 0.00 0.00 0.00 89 1014.1
20260503071702 30 0 0.0 0.0 0.00 0.00 0.00 89 1014.1
20260503071602 30 0 0.0 0.0 0.00 0.00 0.00 89 1014.0
20260503071502 30 0 0.0 0.0 0.00 0.00 0.00 89 1014.0
20260503071423 30 0 0.0 0.0 0.00 0.00 0.00 89 1014.1
20260503071302 30 0 0.0 0.0 0.00 0.00 0.00 89 1014.1
20260503071202 30 0 0.0 0.0 0.00 0.00 0.00 89 1014.1
20260503071102 30 0 0.0 0.0 0.00 0.00 0.00 89 1014.1
20260503071003 30 0 0.0 0.0 0.00 0.00 0.00 89 1014.1
20260503070902 30 0 0.0 0.0 0.00 0.00 0.00 89 1014.1
20260503070802 30 0 0.0 0.0 0.00 0.00 0.00 89 1014.1
20260503070702 30 0 0.0 0.0 0.00 0.00 0.00 89 1014.1
20260503070602 30 0 0.0 0.0 0.00 0.00 0.00 89 1014.1
20260503070502 30 0 0.0 0.0 0.00 0.00 0.00 89 1014.1
20260503070402 30 0 0.0 0.0 0.00 0.00 0.00 89 1014.2
20260503070302 30 0 0.0 0.0 0.00 0.00 0.00 89 1014.1
20260503070202 30 0 0.0 0.0 0.00 0.00 0.00 89 1014.1
20260503060302 30 0 0.0 0.0 0.00 0.00 0.00 89 1014.6
20260503060202 30 0 0.0 0.0 0.00 0.00 0.00 89 1014.6
20260503055102 30 0 0.0 0.0 0.00 0.00 0.00 89 1014.6
20260503055023 30 0 0.0 0.0 0.00 0.00 0.00 89 1014.6
20260503054923 30 0 0.0 0.0 0.00 0.00 0.00 89 1014.6
20260503054802 30 0 0.0 0.0 0.00 0.00 0.00 89 1014.7
20260503054702 30 0 0.0 0.0 0.00 0.00 0.00 89 1014.7
20260503054602 30 0 0.0 0.0 0.00 0.00 0.00 89 1014.7
20260503054502 30 0 0.0 0.0 0.00 0.00 0.00 89 1014.7
20260503054402 30 0 0.0 0.0 0.00 0.00 0.00 89 1014.7
20260503054302 30 0 0.0 0.0 0.00 0.00 0.00 89 1014.8
20260503054202 30 0 0.0 0.0 0.00 0.00 0.00 89 1014.8
20260503054102 30 0 0.0 0.0 0.00 0.00 0.00 88 1014.8
20260503054023 30 0 0.0 0.0 0.00 0.00 0.00 88 1014.8
20260503053923 30 0 0.0 0.0 0.00 0.00 0.00 88 1014.8
20260503053824 30 0 0.0 0.0 0.00 0.00 0.00 88 1014.8
20260503053702 30 0 0.0 0.0 0.00 0.00 0.00 88 1014.8
20260503053602 30 0 0.0 0.0 0.00 0.00 0.00 88 1014.8
20260503053523 30 0 0.0 0.0 0.00 0.00 0.00 88 1014.8
20260503053402 30 0 0.0 0.0 0.00 0.00 0.00 88 1014.8
20260503053302 30 0 0.0 0.0 0.00 0.00 0.00 88 1014.8
20260503053202 30 0 0.0 0.0 0.00 0.00 0.00 88 1014.8
20260503053102 30 0 0.0 0.0 0.00 0.00 0.00 88 1014.8
20260503053002 30 0 0.0 0.0 0.00 0.00 0.00 88 1014.8
20260503052902 30 0 0.0 0.0 0.00 0.00 0.00 88 1014.8
20260503052802 30 0 0.0 0.0 0.00 0.00 0.00 88 1014.8
20260503052702 30 0 0.0 0.0 0.00 0.00 0.00 88 1014.8
20260503052602 30 0 0.0 0.0 0.00 0.00 0.00 88 1014.8
20260503052502 30 0 0.0 0.0 0.00 0.00 0.00 88 1014.8
20260503052423 30 0 0.0 0.0 0.00 0.00 0.00 88 1014.8
20260503052323 30 0 0.0 0.0 0.00 0.00 0.00 88 1014.8
20260503052202 30 0 0.0 0.0 0.00 0.00 0.00 88 1014.8
20260503052102 30 0 0.0 0.0 0.00 0.00 0.00 88 1014.9
20260503052002 30 0 0.0 0.0 0.00 0.00 0.00 88 1014.9
20260503051902 30 0 0.0 0.0 0.00 0.00 0.00 88 1014.9
20260503051802 30 0 0.0 0.0 0.00 0.00 0.00 88 1014.9
20260503051702 30 0 0.0 0.0 0.00 0.00 0.00 88 1014.9
20260503051602 30 0 0.0 0.0 0.00 0.00 0.00 88 1014.9
20260503051502 30 0 0.0 0.0 0.00 0.00 0.00 87 1014.9
20260503051402 30 0 0.0 0.0 0.00 0.00 0.00 87 1014.9
20260503051302 30 0 0.0 0.0 0.00 0.00 0.00 87 1014.9
20260503051202 30 0 0.0 0.0 0.00 0.00 0.00 87 1014.9
20260503051102 30 0 0.0 0.0 0.00 0.00 0.00 87 1014.9
20260503051024 30 0 0.0 0.0 0.00 0.00 0.00 87 1014.9
20260503050923 30 0 0.0 0.0 0.00 0.00 0.00 87 1014.9
20260503050802 30 0 0.0 0.0 0.00 0.00 0.00 87 1014.9
20260503050702 30 0 0.0 0.0 0.00 0.00 0.00 87 1014.9
20260503050602 30 0 0.0 0.0 0.00 0.00 0.00 87 1014.9
20260503050502 30 0 0.0 0.0 0.00 0.00 0.00 87 1014.9
20260503050402 30 0 0.0 0.0 0.00 0.00 0.00 87 1014.9
20260503050302 30 0 0.0 0.0 0.00 0.00 0.00 87 1014.9
20260503050202 30 0 0.0 0.0 0.00 0.00 0.00 87 1015.0
20260503050002 30 0 0.0 0.0 0.00 0.00 0.00 87 1014.9
20260503045923 30 0 0.0 0.0 0.00 0.00 0.00 87 1014.9
20260503045802 30 0 0.0 0.0 0.00 0.00 0.00 87 1014.9
20260503045703 30 0 0.0 0.0 0.00 0.00 0.00 87 1014.9
20260503045602 30 0 0.0 0.0 0.00 0.00 0.00 87 1014.9
20260503045502 31 0 0.0 0.0 0.00 0.00 0.00 87 1014.9
20260503045423 30 0 0.0 0.0 0.00 0.00 0.00 87 1014.9
20260503045304 31 0 0.0 0.0 0.00 0.00 0.00 87 1014.9
20260503045202 31 0 0.0 0.0 0.00 0.00 0.00 87 1014.9
20260503045102 31 0 0.0 0.0 0.00 0.00 0.00 87 1014.9
20260503045002 31 0 0.0 0.0 0.00 0.00 0.00 87 1014.9
20260503044902 31 0 0.0 0.0 0.00 0.00 0.00 87 1014.9
20260503044802 31 0 0.0 0.0 0.00 0.00 0.00 87 1014.9
20260503044702 31 0 0.0 0.0 0.00 0.00 0.00 87 1014.9
20260503044602 31 0 0.0 0.0 0.00 0.00 0.00 87 1014.9
20260503044502 31 0 0.0 0.0 0.00 0.00 0.00 87 1014.9
20260503044423 31 0 0.0 0.0 0.00 0.00 0.00 87 1014.9
20260503044302 31 0 0.0 0.0 0.00 0.00 0.00 87 1014.9
20260503044202 31 0 0.0 0.0 0.00 0.00 0.00 87 1014.9
20260503044102 31 0 0.0 0.0 0.00 0.00 0.00 87 1015.0
20260503044002 31 0 0.0 0.0 0.00 0.00 0.00 87 1015.0
20260503043923 31 0 0.0 0.0 0.00 0.00 0.00 87 1014.9
20260503043802 31 0 0.0 0.0 0.00 0.00 0.00 87 1014.9
20260503043702 31 0 0.0 0.0 0.00 0.00 0.00 87 1014.9
20260503043602 31 0 0.0 0.0 0.00 0.00 0.00 87 1014.9
20260503043502 31 0 0.0 0.0 0.00 0.00 0.00 87 1014.9
20260503043402 31 0 0.0 0.0 0.00 0.00 0.00 87 1014.9
20260503043323 31 0 0.0 0.0 0.00 0.00 0.00 87 1014.9
20260503043202 31 0 0.0 0.0 0.00 0.00 0.00 87 1014.9
20260503043102 31 0 0.0 0.0 0.00 0.00 0.00 87 1014.9
20260503043002 31 0 0.0 0.0 0.00 0.00 0.00 86 1014.9
20260503042902 31 0 0.0 0.0 0.00 0.00 0.00 86 1014.9
20260503042802 31 0 0.0 0.0 0.00 0.00 0.00 86 1014.9
20260503042702 31 0 0.0 0.0 0.00 0.00 0.00 86 1014.9
20260503042602 31 0 0.0 0.0 0.00 0.00 0.00 86 1014.9
20260503042502 31 0 0.0 0.0 0.00 0.00 0.00 86 1014.9
20260503042402 31 0 0.0 0.0 0.00 0.00 0.00 86 1014.9
20260503042304 31 0 0.0 0.0 0.00 0.00 0.00 86 1014.9
20260503042202 31 0 0.0 0.0 0.00 0.00 0.00 86 1014.9
20260503042102 31 0 0.0 0.0 0.00 0.00 0.00 86 1014.9
20260503042002 31 0 0.0 0.0 0.00 0.00 0.00 86 1014.9
20260503041902 31 0 0.0 0.0 0.00 0.00 0.00 86 1015.0
20260503041802 31 0 0.0 0.0 0.00 0.00 0.00 86 1015.0
20260503041723 31 0 0.0 0.0 0.00 0.00 0.00 86 1015.0
20260503041623 31 0 0.0 0.0 0.00 0.00 0.00 86 1015.0
20260503041502 31 0 0.0 0.0 0.00 0.00 0.00 86 1015.0
20260503041402 31 0 0.0 0.0 0.00 0.00 0.00 86 1015.0
20260503041302 31 0 0.0 0.0 0.00 0.00 0.00 86 1015.0
20260503041202 31 0 0.0 0.0 0.00 0.00 0.00 86 1015.0
20260503041102 31 0 0.0 0.0 0.00 0.00 0.00 86 1015.0
20260503041002 31 0 0.0 0.0 0.00 0.00 0.00 86 1015.0
20260503040902 31 0 0.0 0.0 0.00 0.00 0.00 86 1015.0
20260503040802 31 0 0.0 0.0 0.00 0.00 0.00 86 1015.0
20260503040702 31 0 0.0 0.0 0.00 0.00 0.00 86 1015.0
20260503040602 31 0 0.0 0.0 0.00 0.00 0.00 86 1015.1
20260503040502 31 0 0.0 0.0 0.00 0.00 0.00 86 1015.1
20260503040402 31 0 0.0 0.0 0.00 0.00 0.00 86 1015.1
20260503040302 31 0 0.0 0.0 0.00 0.00 0.00 86 1015.1
20260503040202 31 0 0.0 0.0 0.00 0.00 0.00 86 1015.1
20260503040002 32 0 0.0 0.0 0.00 0.00 0.00 86 1015.1
20260503035902 32 0 0.0 0.0 0.00 0.00 0.00 86 1015.1
20260503035802 32 0 0.0 0.0 0.00 0.00 0.00 86 1015.1
20260503035702 32 0 0.0 0.0 0.00 0.00 0.00 86 1015.1
20260503035602 32 0 0.0 0.0 0.00 0.00 0.00 85 1015.1
20260503035502 32 0 0.0 0.0 0.00 0.00 0.00 85 1015.1
20260503035402 32 0 0.0 0.0 0.00 0.00 0.00 85 1015.1
20260503035304 32 0 0.0 0.0 0.00 0.00 0.00 85 1015.2
20260503035202 32 0 0.0 0.0 0.00 0.00 0.00 85 1015.2
20260503035102 32 0 0.0 0.0 0.00 0.00 0.00 85 1015.1
20260503035002 32 0 0.0 0.0 0.00 0.00 0.00 85 1015.1
20260503034902 32 0 0.0 0.0 0.00 0.00 0.00 85 1015.1
20260503034823 32 0 0.0 0.0 0.00 0.00 0.00 85 1015.1
20260503034702 32 0 0.0 0.0 0.00 0.00 0.00 84 1015.1
20260503034602 32 0 0.0 0.0 0.00 0.00 0.00 84 1015.2
20260503034502 32 0 0.0 0.0 0.00 0.00 0.00 84 1015.2
20260503034423 32 0 0.0 0.0 0.00 0.00 0.00 84 1015.1
20260503034323 32 0 0.0 0.0 0.00 0.00 0.00 84 1015.1
20260503034202 32 0 0.0 0.0 0.00 0.00 0.00 84 1015.1
20260503034102 32 0 0.0 0.0 0.00 0.00 0.00 84 1015.2
20260503034002 32 0 0.0 0.0 0.00 0.00 0.00 84 1015.2
20260503033923 32 0 0.0 0.0 0.00 0.00 0.00 84 1015.2
20260503033823 32 0 0.0 0.0 0.00 0.00 0.00 84 1015.2
20260503033702 32 0 0.0 0.0 0.00 0.00 0.00 84 1015.2
20260503033623 32 0 0.0 0.0 0.00 0.00 0.00 84 1015.2
20260503033502 32 0 0.0 0.0 0.00 0.00 0.00 84 1015.1
20260503033402 32 0 0.0 0.0 0.00 0.00 0.00 83 1015.1
20260503033302 32 0 0.0 0.0 0.00 0.00 0.00 83 1015.2
20260503033202 32 0 0.0 0.0 0.00 0.00 0.00 83 1015.2
20260503033102 32 0 0.0 0.0 0.00 0.00 0.00 84 1015.2
20260503033002 32 0 0.0 0.0 0.00 0.00 0.00 84 1015.2
20260503032902 32 0 0.0 0.0 0.00 0.00 0.00 84 1015.2
20260503032802 32 0 0.0 0.0 0.00 0.00 0.00 84 1015.2
20260503032703 32 0 0.0 0.0 0.00 0.00 0.00 83 1015.2
20260503032602 32 0 0.0 0.0 0.00 0.00 0.00 83 1015.2
20260503032502 32 0 0.0 0.0 0.00 0.00 0.00 83 1015.2
20260503032402 32 0 0.0 0.0 0.00 0.00 0.00 83 1015.2
20260503032304 33 0 0.0 0.0 0.00 0.00 0.00 83 1015.2
20260503032202 33 0 0.0 0.0 0.00 0.00 0.00 83 1015.2
20260503032102 33 0 0.0 0.0 0.00 0.00 0.00 83 1015.2
20260503032002 33 0 0.0 0.0 0.00 0.00 0.00 83 1015.2
20260503031902 33 0 0.0 0.0 0.00 0.00 0.00 83 1015.2
20260503031802 33 0 0.0 0.0 0.00 0.00 0.00 83 1015.2
20260503031702 33 0 0.0 0.0 0.00 0.00 0.00 83 1015.2
20260503031602 33 0 0.0 0.0 0.00 0.00 0.00 83 1015.2
20260503031502 33 0 0.0 0.0 0.00 0.00 0.00 83 1015.2
20260503031402 33 0 0.0 0.0 0.00 0.00 0.00 83 1015.2
20260503031302 33 0 0.0 0.0 0.00 0.00 0.00 83 1015.2
20260503031202 33 0 0.0 0.0 0.00 0.00 0.00 83 1015.2
20260503031102 33 0 0.0 0.0 0.00 0.00 0.00 83 1015.2
20260503031002 33 0 0.0 0.0 0.00 0.00 0.00 82 1015.2
20260503030902 33 0 0.0 0.0 0.00 0.00 0.00 83 1015.2
20260503030803 33 0 0.0 0.0 0.00 0.00 0.00 83 1015.2
20260503030723 33 0 0.0 0.0 0.00 0.00 0.00 83 1015.2
20260503030602 33 0 0.0 0.0 0.00 0.00 0.00 83 1015.3
20260503030502 33 0 0.0 0.0 0.00 0.00 0.00 82 1015.2
20260503030402 33 0 0.0 0.0 0.00 0.00 0.00 82 1015.2
20260503030303 33 0 0.0 0.0 0.00 0.00 0.00 82 1015.2
20260503030202 33 0 0.0 0.0 0.00 0.00 0.00 82 1015.3
20260503030003 34 0 0.0 0.0 0.00 0.00 0.00 82 1015.3
20260503025902 34 0 0.0 0.0 0.00 0.00 0.00 81 1015.3
20260503025802 34 0 0.0 0.0 0.00 0.00 0.00 81 1015.3
20260503025702 34 0 0.0 0.0 0.00 0.00 0.00 81 1015.3
20260503025602 34 0 0.0 0.0 0.00 0.00 0.00 81 1015.3
20260503025523 34 0 0.0 0.0 0.00 0.00 0.00 81 1015.3
20260503025402 34 0 0.0 0.0 0.00 0.00 0.00 81 1015.3
20260503025305 34 0 0.0 0.0 0.00 0.00 0.00 81 1015.3
20260503025202 34 0 0.0 0.0 0.00 0.00 0.00 81 1015.3
20260503025102 34 0 0.0 0.0 0.00 0.00 0.00 81 1015.3
20260503025002 34 0 0.0 0.0 0.00 0.00 0.00 81 1015.4
20260503024902 34 0 0.0 0.0 0.00 0.00 0.00 81 1015.3
20260503024802 34 0 0.0 0.0 0.00 0.00 0.00 81 1015.3
20260503024702 34 0 0.0 0.0 0.00 0.00 0.00 81 1015.4
20260503024602 34 0 0.0 0.0 0.00 0.00 0.00 81 1015.4
20260503024502 34 0 0.0 0.0 0.00 0.00 0.00 81 1015.4
20260503024402 34 0 0.0 0.0 0.00 0.00 0.00 81 1015.4
20260503024302 34 0 0.0 0.0 0.00 0.00 0.00 80 1015.4
20260503024223 34 0 0.0 0.0 0.00 0.00 0.00 80 1015.4
20260503024102 34 0 0.0 0.0 0.00 0.00 0.00 80 1015.4
20260503024002 34 0 0.0 0.0 0.00 0.00 0.00 80 1015.4
20260503023902 34 0 0.0 0.0 0.00 0.00 0.00 79 1015.4
20260503023802 34 0 0.0 0.0 0.00 0.00 0.00 79 1015.4
20260503023702 34 0 0.0 0.0 0.00 0.00 0.00 79 1015.4
20260503023623 34 0 0.0 0.0 0.00 0.00 0.00 79 1015.4
20260503023523 34 0 0.0 0.0 0.00 0.00 0.00 78 1015.4
20260503023402 34 0 0.0 0.0 0.00 0.00 0.00 77 1015.4
20260503023302 34 0 0.0 0.0 0.00 0.00 0.00 77 1015.4
20260503023202 34 0 0.0 0.0 0.00 0.00 0.00 77 1015.4
20260503023123 35 0 0.0 0.0 0.00 0.00 0.00 76 1015.4
20260503023002 35 0 0.0 0.0 0.00 0.00 0.00 76 1015.4
20260503022902 35 0 0.0 0.0 0.00 0.00 0.00 76 1015.4
20260503022802 35 0 0.0 0.0 0.00 0.00 0.00 76 1015.4
20260503022702 35 0 0.0 0.0 0.00 0.00 0.00 76 1015.4
20260503022602 35 0 0.0 0.0 0.00 0.00 0.00 76 1015.4
20260503022502 35 0 0.0 0.0 0.00 0.00 0.00 76 1015.4
20260503022402 35 0 0.0 0.0 0.00 0.00 0.00 76 1015.5
20260503022304 35 0 0.0 0.0 0.00 0.00 0.00 76 1015.4
20260503022202 35 0 0.0 0.0 0.00 0.00 0.00 75 1015.4
20260503022102 35 0 0.0 0.0 0.00 0.00 0.00 75 1015.4
20260503022023 35 0 0.0 0.0 0.00 0.00 0.00 75 1015.4
20260503021902 35 0 0.0 0.0 0.00 0.00 0.00 76 1015.4
20260503021802 35 0 0.0 0.0 0.00 0.00 0.00 76 1015.5
20260503021702 35 0 0.0 0.0 0.00 0.00 0.00 76 1015.5
20260503021602 35 0 0.0 0.0 0.00 0.00 0.00 76 1015.4
20260503021502 35 0 0.0 0.0 0.00 0.00 0.00 75 1015.4
20260503021402 35 0 0.0 0.0 0.00 0.00 0.00 76 1015.4
20260503021302 35 0 0.0 0.0 0.00 0.00 0.00 76 1015.4
20260503021202 35 0 0.0 0.0 0.00 0.00 0.00 76 1015.4
20260503021102 36 0 0.0 0.0 0.00 0.00 0.00 75 1015.4
20260503021002 36 0 0.0 0.0 0.00 0.00 0.00 74 1015.4
20260503020902 36 0 0.0 0.0 0.00 0.00 0.00 75 1015.4
20260503020802 36 0 0.0 0.0 0.00 0.00 0.00 75 1015.4
20260503020723 36 0 0.0 0.0 0.00 0.00 0.00 75 1015.4
20260503020603 36 0 0.0 0.0 0.00 0.00 0.00 74 1015.4
20260503020502 36 0 0.0 0.0 0.00 0.00 0.00 74 1015.3
20260503020402 36 0 0.0 0.0 0.00 0.00 0.00 73 1015.3
20260503020323 36 0 0.0 0.0 0.00 0.00 0.00 73 1015.4
20260503020202 36 0 0.0 0.0 0.00 0.00 0.00 75 1015.4
20260503020002 36 0 0.0 0.0 0.00 0.00 0.00 75 1015.3
20260503015902 36 0 0.0 0.0 0.00 0.00 0.00 74 1015.3
20260503015802 36 0 0.0 0.0 0.00 0.00 0.00 75 1015.4
20260503015702 37 0 0.0 0.0 0.00 0.00 0.00 76 1015.4
20260503015623 37 0 0.0 0.0 0.00 0.00 0.00 76 1015.4
20260503015502 37 0 0.0 0.0 0.00 0.00 0.00 76 1015.4
20260503015402 37 0 0.0 0.0 0.00 0.00 0.00 75 1015.4
20260503015305 37 0 0.0 0.0 0.00 0.00 0.00 74 1015.4
20260503015202 37 0 0.0 0.0 0.00 0.00 0.00 73 1015.3
20260503015102 37 0 0.0 0.0 0.00 0.00 0.00 72 1015.3
20260503015002 37 0 0.0 0.0 0.00 0.00 0.00 73 1015.3
20260503014902 37 0 0.0 0.0 0.00 0.00 0.00 73 1015.3
20260503014802 37 0 0.0 0.0 0.00 0.00 0.00 73 1015.3
20260503014702 37 0 0.0 0.0 0.00 0.00 0.00 73 1015.3
20260503014602 37 0 0.0 0.0 0.00 0.00 0.00 72 1015.3
20260503014502 37 0 0.0 0.0 0.00 0.00 0.00 72 1015.2
20260503014402 38 0 0.0 0.0 0.00 0.00 0.00 71 1015.2
20260503014302 38 0 0.0 0.0 0.00 0.00 0.00 70 1015.2
20260503014202 38 0 0.0 0.0 0.00 0.00 0.00 72 1015.2
20260503014102 38 0 0.0 0.0 0.00 0.00 0.00 71 1015.2
20260503014002 38 0 0.0 0.0 0.00 0.00 0.00 72 1015.2
20260503013902 38 0 0.0 0.0 0.00 0.00 0.00 72 1015.2
20260503013802 38 0 0.0 0.0 0.00 0.00 0.00 72 1015.2
20260503013723 38 0 0.0 0.0 0.00 0.00 0.00 72 1015.1
20260503013602 38 0 0.0 0.0 0.00 0.00 0.00 73 1015.1
20260503013523 38 0 0.0 0.0 0.00 0.00 0.00 73 1015.2
20260503013402 38 0 0.0 0.0 0.00 0.00 0.00 73 1015.2
20260503013302 39 0 0.0 0.0 0.00 0.00 0.00 72 1015.2
20260503013223 39 0 0.0 0.0 0.00 0.00 0.00 71 1015.1
20260503013102 39 0 0.0 0.0 0.00 0.00 0.00 70 1015.1
20260503013002 39 0 0.0 0.0 0.00 0.00 0.00 69 1015.1
20260503012902 39 0 0.0 0.0 0.00 0.00 0.00 71 1015.2
20260503012823 39 0 0.0 0.0 0.00 0.00 0.00 71 1015.2
20260503012702 39 0 0.0 0.0 0.00 0.00 0.00 71 1015.2
20260503012602 39 0 0.0 0.0 0.00 0.00 0.00 71 1015.1
20260503012502 40 0 0.0 0.0 0.00 0.00 0.00 72 1015.1
20260503012402 40 0 0.0 0.0 0.00 0.00 0.00 72 1015.1
20260503012305 40 0 0.0 0.0 0.00 0.00 0.00 72 1015.1
20260503012202 40 0 0.0 0.0 0.00 0.00 0.00 72 1015.1
20260503012102 40 0 0.0 0.0 0.00 0.00 0.00 71 1015.1
20260503012002 40 0 0.0 0.0 0.00 0.00 0.00 71 1015.1
20260503011902 40 0 0.0 0.0 0.00 0.00 0.00 70 1015.1
20260503011802 40 0 0.0 0.0 0.00 0.00 0.00 70 1015.1
20260503011723 40 0 0.0 0.0 0.00 0.00 0.00 70 1015.1
20260503011602 40 0 0.0 0.0 0.00 0.00 0.00 69 1015.1
20260503011523 40 0 0.0 0.0 0.00 0.00 0.00 69 1015.1
20260503011402 40 0 0.0 0.0 0.00 0.00 0.00 68 1015.1
20260503011302 40 0 0.0 0.0 0.00 0.00 0.00 67 1015.1
20260503011202 40 0 0.0 0.0 0.00 0.00 0.00 67 1015.1
20260503011102 40 0 0.0 0.0 0.00 0.00 0.00 67 1015.1
20260503011023 40 0 0.0 0.0 0.00 0.00 0.00 67 1015.1
20260503010902 41 0 0.0 0.0 0.00 0.00 0.00 66 1015.1
20260503010802 41 0 0.0 0.0 0.00 0.00 0.00 67 1015.1
20260503010702 41 0 0.0 0.0 0.00 0.00 0.00 67 1015.1
20260503010602 41 0 0.0 0.0 0.00 0.00 0.00 69 1015.0
20260503010523 41 0 0.0 0.0 0.00 0.00 0.00 69 1015.0
20260503010402 41 0 0.0 0.0 0.00 0.00 0.00 68 1015.0
20260503010302 41 0 0.0 0.0 0.00 0.00 0.00 65 1015.0
20260503010202 42 0 0.0 0.0 0.00 0.00 0.00 66 1015.0
20260503010123 42 0 0.0 0.0 0.00 0.00 0.00 65 1015.0
20260503010002 42 0 0.0 0.0 0.00 0.00 0.00 66 1015.0
20260503005902 42 0 0.0 0.0 0.00 0.00 0.00 66 1015.0
20260503005802 42 0 0.0 0.0 0.00 0.00 0.00 66 1015.0
20260503005723 42 0 0.0 0.0 0.00 0.00 0.00 67 1015.0
20260503005602 42 0 0.0 0.0 0.00 0.00 0.00 66 1015.0
20260503005502 42 0 0.0 0.0 0.00 0.00 0.00 66 1015.0
20260503005402 42 0 0.0 0.0 0.00 0.00 0.00 66 1015.0
20260503005304 42 0 0.0 0.0 0.00 0.00 0.00 66 1015.0
20260503005202 42 0 0.0 0.0 0.00 0.00 0.00 65 1015.0
20260503005102 42 0 0.0 0.0 0.00 0.00 0.00 64 1015.0
20260503005002 42 0 0.0 0.0 0.00 0.00 0.00 63 1014.9
20260503004902 43 0 0.0 0.0 0.00 0.00 0.00 65 1014.9
20260503004823 43 0 0.0 0.0 0.00 0.00 0.00 65 1015.0
20260503004702 43 0 0.0 0.0 0.00 0.00 0.00 63 1015.0
20260503004602 43 0 0.0 0.0 0.00 0.00 0.00 62 1014.9
20260503004502 43 0 0.0 0.0 0.00 0.00 0.00 62 1014.9
20260503004402 43 0 0.0 0.0 0.00 0.00 0.00 64 1014.9
20260503004302 43 0 0.0 0.0 0.00 0.00 0.00 60 1014.9
20260503004202 44 0 0.0 0.0 0.00 0.00 0.00 60 1014.9
20260503004102 44 0 0.0 0.0 0.00 0.00 0.00 60 1014.9
20260503004002 44 0 0.0 0.0 0.00 0.00 0.00 60 1014.9
20260503003902 44 0 0.0 0.0 0.00 0.00 0.00 63 1014.9
20260503003802 44 0 0.0 0.0 0.00 0.00 0.00 63 1014.9
20260503003723 44 0 0.0 0.0 0.00 0.00 0.00 59 1014.9
20260503003602 44 0 0.0 0.0 0.00 0.00 0.00 59 1014.9
20260503003502 44 0 0.0 0.0 0.00 0.00 0.00 61 1014.9
20260503003402 45 0 0.0 0.0 0.00 0.00 0.00 59 1014.9
20260503003323 45 0 0.0 0.0 0.00 0.00 0.00 58 1014.9
20260503003223 45 0 0.0 0.0 0.00 0.00 0.00 58 1014.9
20260503003102 45 0 0.0 0.0 0.00 0.00 0.00 58 1014.8
20260503003002 45 0 0.0 0.0 0.00 0.00 0.00 59 1014.8
20260503002902 46 0 0.0 0.0 0.00 0.00 0.00 62 1014.8
20260503002802 46 0 0.0 0.0 0.00 0.00 0.00 59 1014.9
20260503002702 46 0 0.0 0.0 0.00 0.00 0.00 59 1014.8
20260503002602 46 0 0.0 0.0 0.00 0.00 0.00 60 1014.8
20260503002502 46 0 0.0 0.0 0.00 0.00 0.00 58 1014.8
20260503002402 46 0 0.0 0.0 0.00 0.00 0.00 59 1014.8
20260503002304 46 0 0.0 0.0 0.00 0.00 0.00 56 1014.8
20260503002202 46 0 0.0 0.0 0.00 0.00 0.00 53 1014.8
20260503002102 46 0 0.0 0.0 0.00 0.00 0.00 54 1014.8
20260503002002 46 0 0.0 0.0 0.00 0.00 0.00 54 1014.8
20260503001902 46 0 0.0 0.0 0.00 0.00 0.00 52 1014.8
20260503001802 46 0 0.0 0.0 0.00 0.00 0.00 53 1014.8
20260503001702 46 0 0.0 0.0 0.00 0.00 0.00 53 1014.8
20260503001602 46 0 0.0 0.0 0.00 0.00 0.00 54 1014.8
20260503001523 46 0 0.0 0.0 0.00 0.00 0.00 54 1014.8
20260503001402 46 0 0.0 0.0 0.00 0.00 0.00 55 1014.8
20260503001302 46 217 0.0 2.0 0.00 0.00 0.00 54 1014.8
20260503001202 46 219 0.0 2.0 0.00 0.00 0.00 53 1014.8
20260503001123 46 219 0.0 2.0 0.00 0.00 0.00 50 1014.8
20260503001023 46 219 0.0 2.0 0.00 0.00 0.00 51 1014.9
20260503000902 46 219 0.0 2.0 0.00 0.00 0.00 52 1014.9
20260503000802 46 219 0.0 2.0 0.00 0.00 0.00 53 1014.9
20260503000723 46 219 0.0 2.0 0.00 0.00 0.00 51 1014.9
20260503000602 46 219 0.0 2.0 0.00 0.00 0.00 48 1014.9
20260503000523 46 219 0.0 2.0 0.00 0.00 0.00 49 1014.9
20260503000402 46 219 0.0 2.0 0.00 0.00 0.00 46 1014.9
20260503000325 46 219 0.0 2.0 0.00 0.00 0.00 47 1014.9
20260503000203 47 213 0.0 1.0 0.00 0.00 0.00 49 1014.9
20260503000002 47 213 0.0 1.0 0.00 0.00 0.00 47 1014.9
20260502235923 47 213 0.0 1.0 0.00 0.00 0.00 46 1014.9
20260502235802 47 213 0.0 1.0 0.00 0.00 0.00 45 1014.9
20260502235702 47 213 0.0 1.0 0.00 0.00 0.00 46 1014.9
20260502235602 47 213 0.0 1.0 0.00 0.00 0.00 47 1014.9
20260502235502 47 222 0.0 4.0 0.00 0.00 0.00 46 1014.9
20260502235402 47 225 0.0 5.0 0.00 0.00 0.00 47 1014.9
20260502235304 47 227 0.0 5.0 0.00 0.00 0.00 46 1014.9
20260502235202 47 227 0.0 5.0 0.00 0.00 0.00 47 1014.9
20260502235102 47 227 0.0 5.0 0.00 0.00 0.00 47 1014.9
20260502235003 47 227 0.0 5.0 0.00 0.00 0.00 47 1014.9
20260502234902 47 227 1.0 5.0 0.00 0.00 0.00 49 1014.9
20260502234802 47 226 1.0 5.0 0.00 0.00 0.00 49 1014.9
20260502234702 47 237 1.0 5.0 0.00 0.00 0.00 48 1014.9
20260502234602 47 247 1.0 5.0 0.00 0.00 0.00 46 1014.9
20260502234502 47 251 1.0 5.0 0.00 0.00 0.00 45 1014.9
20260502234402 47 261 1.0 4.0 0.00 0.00 0.00 49 1014.9
20260502234302 47 267 1.0 4.0 0.00 0.00 0.00 49 1014.9
20260502234223 47 267 1.0 4.0 0.00 0.00 0.00 49 1014.9
20260502234102 47 266 1.0 4.0 0.00 0.00 0.00 46 1014.9
20260502234023 47 266 1.0 4.0 0.00 0.00 0.00 45 1014.9
20260502233902 47 278 1.0 4.0 0.00 0.00 0.00 45 1015.0
20260502233802 47 296 1.0 4.0 0.00 0.00 0.00 45 1014.9
20260502233702 47 264 0.0 3.0 0.00 0.00 0.00 47 1014.9
20260502233602 47 225 0.0 2.0 0.00 0.00 0.00 45 1014.9
20260502233502 47 220 0.0 1.0 0.00 0.00 0.00 46 1014.9
20260502233402 47 218 0.0 1.0 0.00 0.00 0.00 49 1014.9
20260502233302 47 217 0.0 1.0 0.00 0.00 0.00 49 1014.9
20260502233202 47 224 0.0 1.0 0.00 0.00 0.00 47 1014.9
20260502233102 47 244 0.0 1.0 0.00 0.00 0.00 47 1014.9
20260502233023 47 244 0.0 1.0 0.00 0.00 0.00 49 1014.9
20260502232902 47 249 0.0 1.0 0.00 0.00 0.00 49 1015.0
20260502232802 47 249 0.0 1.0 0.00 0.00 0.00 47 1015.0
20260502232702 47 249 0.0 1.0 0.00 0.00 0.00 48 1015.0
20260502232602 47 250 0.0 1.0 0.00 0.00 0.00 46 1015.0
20260502232502 47 264 0.0 1.0 0.00 0.00 0.00 47 1015.0
20260502232423 47 271 0.0 1.0 0.00 0.00 0.00 46 1015.0
20260502232304 47 281 0.0 1.0 0.00 0.00 0.00 50 1015.0
20260502232202 47 298 0.0 1.0 0.00 0.00 0.00 50 1015.0
20260502232102 47 267 0.0 1.0 0.00 0.00 0.00 48 1015.0
20260502232002 47 272 0.0 1.0 0.00 0.00 0.00 48 1015.0
20260502231923 47 272 0.0 1.0 0.00 0.00 0.00 48 1015.0
20260502231803 47 272 0.0 1.0 0.00 0.00 0.00 49 1015.0
20260502231723 47 272 0.0 1.0 0.00 0.00 0.00 47 1015.0
20260502231602 47 266 0.0 1.0 0.00 0.00 0.00 48 1015.0
20260502231502 47 256 0.0 1.0 0.00 0.00 0.00 47 1015.0
20260502231402 47 241 0.0 2.0 0.00 0.00 0.00 46 1015.0
20260502231302 47 239 0.0 2.0 0.00 0.00 0.00 47 1015.0
20260502231224 47 231 0.0 2.0 0.00 0.00 0.00 45 1015.0
20260502231102 47 225 0.0 2.0 0.00 0.00 0.00 45 1015.0
20260502231002 47 222 0.0 2.0 0.00 0.00 0.00 46 1015.1
20260502230902 47 225 0.0 2.0 0.00 0.00 0.00 46 1015.1
20260502230802 47 224 1.0 3.0 0.00 0.00 0.00 45 1015.0
20260502230702 47 224 1.0 3.0 0.00 0.00 0.00 45 1015.1
20260502230602 47 226 1.0 3.0 0.00 0.00 0.00 45 1015.1
20260502230502 47 226 1.0 3.0 0.00 0.00 0.00 48 1015.1
20260502230402 47 226 0.0 3.0 0.00 0.00 0.00 47 1015.1
20260502230302 47 246 1.0 3.0 0.00 0.00 0.00 47 1015.1
20260502230202 47 278 1.0 3.0 0.00 0.00 0.00 46 1015.1
20260502230023 47 303 1.0 3.0 0.00 0.00 0.00 44 1015.1
20260502225903 47 309 1.0 3.0 0.00 0.00 0.00 45 1015.1
20260502225823 47 332 1.0 3.0 0.00 0.00 0.00 46 1015.1
20260502225702 47 339 1.0 3.0 0.00 0.00 0.00 44 1015.1
20260502225602 47 340 1.0 3.0 0.00 0.00 0.00 45 1015.1
20260502225502 47 340 1.0 3.0 0.00 0.00 0.00 45 1015.1
20260502225402 47 340 1.0 3.0 0.00 0.00 0.00 44 1015.1
20260502225323 47 336 1.0 2.0 0.00 0.00 0.00 44 1015.1
20260502225223 47 331 0.0 2.0 0.00 0.00 0.00 43 1015.1
20260502225102 47 329 0.0 1.0 0.00 0.00 0.00 44 1015.1
20260502225024 47 349 0.0 1.0 0.00 0.00 0.00 44 1015.1
20260502224902 47 4 0.0 1.0 0.00 0.00 0.00 45 1015.1
20260502224802 48 5 0.0 1.0 0.00 0.00 0.00 45 1015.1
20260502224702 48 14 0.0 1.0 0.00 0.00 0.00 46 1015.2
20260502224602 48 0 0.0 0.0 0.00 0.00 0.00 46 1015.2
20260502224502 48 0 0.0 0.0 0.00 0.00 0.00 45 1015.1
20260502224423 48 14 0.0 1.0 0.00 0.00 0.00 45 1015.1
20260502224302 48 11 0.0 4.0 0.00 0.00 0.00 44 1015.2
20260502224202 48 11 0.0 4.0 0.00 0.00 0.00 44 1015.2
20260502224102 48 13 0.0 4.0 0.00 0.00 0.00 45 1015.2
20260502224002 48 10 1.0 4.0 0.00 0.00 0.00 45 1015.2
20260502223923 48 8 1.0 4.0 0.00 0.00 0.00 45 1015.2
20260502223802 48 7 1.0 4.0 0.00 0.00 0.00 45 1015.2
20260502223723 48 6 1.0 4.0 0.00 0.00 0.00 44 1015.1
20260502223602 48 1 1.0 4.0 0.00 0.00 0.00 45 1015.2
20260502223502 48 359 1.0 4.0 0.00 0.00 0.00 45 1015.2
20260502223423 48 358 1.0 4.0 0.00 0.00 0.00 43 1015.2
20260502223323 48 352 1.0 4.0 0.00 0.00 0.00 45 1015.2
20260502223202 48 335 1.0 4.0 0.00 0.00 0.00 44 1015.2
20260502223123 48 319 1.0 4.0 0.00 0.00 0.00 43 1015.2
20260502223002 48 237 1.0 3.0 0.00 0.00 0.00 44 1015.2
20260502222902 48 215 0.0 3.0 0.00 0.00 0.00 43 1015.2
20260502222802 48 217 0.0 3.0 0.00 0.00 0.00 43 1015.2
20260502222703 48 237 0.0 3.0 0.00 0.00 0.00 43 1015.1
20260502222602 48 255 0.0 3.0 0.00 0.00 0.00 45 1015.2
20260502222523 48 260 1.0 3.0 0.00 0.00 0.00 44 1015.2
20260502222402 48 294 1.0 3.0 0.00 0.00 0.00 44 1015.2
20260502222305 48 318 1.0 3.0 0.00 0.00 0.00 44 1015.2
20260502222202 48 342 1.0 3.0 0.00 0.00 0.00 44 1015.2
20260502222123 48 342 1.0 3.0 0.00 0.00 0.00 44 1015.2
20260502222002 47 349 1.0 4.0 0.00 0.00 0.00 44 1015.2
20260502221923 47 352 1.0 7.0 0.00 0.00 0.00 43 1015.1
20260502221823 47 351 2.0 7.0 0.00 0.00 0.00 44 1015.1
20260502221702 47 349 2.0 7.0 0.00 0.00 0.00 43 1015.2
20260502221602 47 352 2.0 7.0 0.00 0.00 0.00 45 1015.2
20260502221502 47 350 2.0 7.0 0.00 0.00 0.00 43 1015.2
20260502221402 47 350 2.0 7.0 0.00 0.00 0.00 43 1015.2
20260502221302 48 350 1.0 7.0 0.00 0.00 0.00 43 1015.1
20260502221202 48 349 1.0 7.0 0.00 0.00 0.00 43 1015.1
20260502221102 48 349 1.0 7.0 0.00 0.00 0.00 43 1015.1
20260502221002 48 345 1.0 7.0 0.00 0.00 0.00 43 1015.1
20260502220902 48 341 1.0 3.0 0.00 0.00 0.00 43 1015.1
20260502220802 48 340 1.0 3.0 0.00 0.00 0.00 44 1015.2
20260502220723 48 340 1.0 3.0 0.00 0.00 0.00 43 1015.2
20260502220602 48 338 0.0 3.0 0.00 0.00 0.00 42 1015.2
20260502220523 48 340 0.0 3.0 0.00 0.00 0.00 44 1015.2
20260502220402 48 344 0.0 2.0 0.00 0.00 0.00 43 1015.1
20260502220302 48 344 0.0 2.0 0.00 0.00 0.00 43 1015.1
20260502220202 48 344 0.0 2.0 0.00 0.00 0.00 43 1015.1
20260502220002 48 344 0.0 2.0 0.00 0.00 0.00 43 1015.1
20260502215902 48 344 0.0 2.0 0.00 0.00 0.00 43 1015.1
20260502215823 48 345 0.0 3.0 0.00 0.00 0.00 43 1015.1
20260502215702 48 349 0.0 3.0 0.00 0.00 0.00 44 1015.1
20260502215602 48 349 1.0 3.0 0.00 0.00 0.00 44 1015.2
20260502215503 48 352 1.0 3.0 0.00 0.00 0.00 43 1015.1
20260502215402 48 351 1.0 4.0 0.00 0.00 0.00 44 1015.1
20260502215304 48 351 1.0 4.0 0.00 0.00 0.00 42 1015.1
20260502215202 48 352 1.0 4.0 0.00 0.00 0.00 44 1015.1
20260502215102 48 354 1.0 4.0 0.00 0.00 0.00 43 1015.2
20260502215023 48 354 1.0 4.0 0.00 0.00 0.00 42 1015.2
20260502214923 48 354 1.0 4.0 0.00 0.00 0.00 43 1015.2
20260502214802 48 355 1.0 4.0 0.00 0.00 0.00 43 1015.1
20260502214702 48 353 1.0 4.0 0.00 0.00 0.00 42 1015.1
20260502214602 48 354 1.0 4.0 0.00 0.00 0.00 41 1015.2
20260502214523 48 354 1.0 4.0 0.00 0.00 0.00 41 1015.2
20260502214402 48 358 1.0 3.0 0.00 0.00 0.00 43 1015.2
20260502214303 48 3 1.0 3.0 0.00 0.00 0.00 43 1015.3
20260502214223 48 3 1.0 2.0 0.00 0.00 0.00 44 1015.3
20260502214102 48 2 1.0 2.0 0.00 0.00 0.00 45 1015.2
20260502214002 47 1 1.0 2.0 0.00 0.00 0.00 43 1015.2
20260502213902 48 354 1.0 2.0 0.00 0.00 0.00 45 1015.2
20260502213802 47 350 1.0 2.0 0.00 0.00 0.00 46 1015.3
20260502213703 47 339 1.0 2.0 0.00 0.00 0.00 45 1015.2
20260502213602 47 320 1.0 2.0 0.00 0.00 0.00 46 1015.2
20260502213502 47 305 1.0 2.0 0.00 0.00 0.00 45 1015.3
20260502213423 47 276 1.0 2.0 0.00 0.00 0.00 45 1015.3
20260502213302 47 248 1.0 2.0 0.00 0.00 0.00 45 1015.2
20260502213223 47 266 1.0 3.0 0.00 0.00 0.00 47 1015.2
20260502213124 47 273 1.0 3.0 0.00 0.00 0.00 44 1015.2
20260502213002 47 274 1.0 3.0 0.00 0.00 0.00 45 1015.2
20260502212902 47 249 1.0 3.0 0.00 0.00 0.00 45 1015.2
20260502212802 47 319 1.0 4.0 0.00 0.00 0.00 45 1015.3
20260502212702 47 338 1.0 4.0 0.00 0.00 0.00 46 1015.2
20260502212602 47 342 1.0 4.0 0.00 0.00 0.00 46 1015.2
20260502212502 47 342 1.0 4.0 0.00 0.00 0.00 44 1015.2
20260502212402 48 344 1.0 4.0 0.00 0.00 0.00 45 1015.3
20260502212304 48 343 1.0 4.0 0.00 0.00 0.00 46 1015.3
20260502212202 48 332 1.0 4.0 0.00 0.00 0.00 44 1015.3
20260502212102 48 323 0.0 4.0 0.00 0.00 0.00 44 1015.3
20260502212023 48 322 0.0 4.0 0.00 0.00 0.00 43 1015.3
20260502211902 48 315 1.0 4.0 0.00 0.00 0.00 42 1015.3
20260502211802 48 297 0.0 3.0 0.00 0.00 0.00 44 1015.3
20260502211702 48 269 0.0 2.0 0.00 0.00 0.00 45 1015.3
20260502211602 48 258 0.0 3.0 0.00 0.00 0.00 45 1015.3
20260502211523 48 259 0.0 3.0 0.00 0.00 0.00 44 1015.3
20260502211402 48 269 0.0 3.0 0.00 0.00 0.00 43 1015.3
20260502211302 48 279 1.0 3.0 0.00 0.00 0.00 43 1015.3
20260502211202 48 293 0.0 3.0 0.00 0.00 0.00 42 1015.3
20260502211102 48 293 1.0 3.0 0.00 0.00 0.00 44 1015.3
20260502211002 48 281 1.0 3.0 0.00 0.00 0.00 46 1015.3
20260502210902 48 321 1.0 3.0 0.00 0.00 0.00 48 1015.4
20260502210802 48 330 1.0 3.0 0.00 0.00 0.00 45 1015.4
20260502210702 48 335 1.0 3.0 0.00 0.00 0.00 42 1015.4
20260502210602 48 342 1.0 3.0 0.00 0.00 0.00 42 1015.4
20260502210523 48 341 1.0 3.0 0.00 0.00 0.00 42 1015.4
20260502210402 48 343 1.0 3.0 0.00 0.00 0.00 47 1015.4
20260502210302 48 339 1.0 3.0 0.00 0.00 0.00 47 1015.4
20260502210223 48 339 1.0 3.0 0.00 0.00 0.00 45 1015.5
20260502210123 48 338 1.0 3.0 0.00 0.00 0.00 42 1015.5
20260502210002 48 344 1.0 3.0 0.00 0.00 0.00 44 1015.5
20260502205923 48 341 1.0 3.0 0.00 0.00 0.00 44 1015.5
20260502205823 48 338 0.0 3.0 0.00 0.00 0.00 43 1015.5
20260502205702 48 332 0.0 3.0 0.00 0.00 0.00 43 1015.5
20260502205602 48 340 1.0 3.0 0.00 0.00 0.00 43 1015.5
20260502205502 48 342 1.0 3.0 0.00 0.00 0.00 46 1015.5
20260502205402 48 342 1.0 3.0 0.00 0.00 0.00 43 1015.5
20260502205305 48 346 1.0 3.0 0.00 0.00 0.00 43 1015.5
20260502205202 48 347 1.0 4.0 0.00 0.00 0.00 44 1015.5
20260502205123 48 348 1.0 4.0 0.00 0.00 0.00 44 1015.5
20260502205002 47 348 1.0 4.0 0.00 0.00 0.00 45 1015.5
20260502204902 47 346 1.0 4.0 0.00 0.00 0.00 45 1015.5
20260502204803 47 343 1.0 4.0 0.00 0.00 0.00 45 1015.5
20260502204702 47 343 1.0 4.0 0.00 0.00 0.00 43 1015.5
20260502204602 48 342 1.0 4.0 0.00 0.00 0.00 45 1015.6
20260502204502 48 343 1.0 4.0 0.00 0.00 0.00 43 1015.6
20260502204402 48 343 1.0 4.0 0.00 0.00 0.00 42 1015.5
20260502204302 48 344 1.0 4.0 0.00 0.00 0.00 42 1015.6
20260502204202 48 345 1.0 6.0 0.00 0.00 0.00 44 1015.6
20260502204102 48 345 1.0 6.0 0.00 0.00 0.00 45 1015.6
20260502204002 48 348 2.0 6.0 0.00 0.00 0.00 45 1015.6
20260502203902 48 349 2.0 6.0 0.00 0.00 0.00 45 1015.5
20260502203802 48 353 2.0 6.0 0.00 0.00 0.00 44 1015.5
20260502203702 48 352 2.0 6.0 0.00 0.00 0.00 43 1015.5
20260502203602 48 352 2.0 6.0 0.00 0.00 0.00 43 1015.5
20260502203502 48 350 2.0 6.0 0.00 0.00 0.00 43 1015.6
20260502203423 48 348 2.0 6.0 0.00 0.00 0.00 40 1015.6
20260502203302 48 340 2.0 6.0 0.00 0.00 0.00 41 1015.6
20260502203202 48 334 2.0 5.0 0.00 0.00 0.00 40 1015.6
20260502203102 48 325 2.0 5.0 0.00 0.00 0.00 44 1015.5
20260502203002 48 318 1.0 3.0 0.00 0.00 0.00 45 1015.6
20260502202902 48 334 2.0 5.0 0.00 0.00 0.00 42 1015.6
20260502202802 48 321 1.0 5.0 0.00 0.00 0.00 43 1015.5
20260502202702 48 331 2.0 7.0 0.00 0.00 0.00 43 1015.5
20260502202602 48 337 2.0 7.0 0.00 0.00 0.00 43 1015.5
20260502202523 48 339 2.0 7.0 0.00 0.00 0.00 44 1015.5
20260502202402 48 345 2.0 7.0 0.00 0.00 0.00 43 1015.6
20260502202304 48 347 2.0 7.0 0.00 0.00 0.00 46 1015.7
20260502202202 48 350 2.0 7.0 0.00 0.00 0.00 45 1015.7
20260502202102 48 355 2.0 7.0 0.00 0.00 0.00 44 1015.7
20260502202002 48 350 2.0 7.0 0.00 0.00 0.00 43 1015.7
20260502201902 48 339 2.0 7.0 0.00 0.00 0.00 43 1015.7
20260502201802 48 340 2.0 7.0 0.00 0.00 0.00 42 1015.7
20260502201702 48 339 1.0 6.0 0.00 0.00 0.00 43 1015.8
20260502201602 48 331 1.0 4.0 0.00 0.00 0.00 43 1015.8
20260502201502 48 323 1.0 4.0 0.00 0.00 0.00 44 1015.7
20260502201402 48 330 1.0 4.0 0.00 0.00 0.00 45 1015.7
20260502201302 48 338 1.0 4.0 0.00 0.00 0.00 44 1015.7
20260502201202 48 340 2.0 4.0 0.00 0.00 0.00 45 1015.8
20260502201102 47 340 2.0 5.0 0.00 0.00 0.00 43 1015.8
20260502201003 47 352 2.0 6.0 0.00 0.00 0.00 44 1015.8
20260502200902 47 352 2.0 6.0 0.00 0.00 0.00 43 1015.8
20260502200802 47 350 2.0 6.0 0.00 0.00 0.00 41 1015.8
20260502200702 48 349 2.0 6.0 0.00 0.00 0.00 44 1015.8
20260502200602 48 351 2.0 6.0 0.00 0.00 0.00 43 1015.8
20260502200523 48 353 2.0 6.0 0.00 0.00 0.00 41 1015.8
20260502200402 48 351 2.0 6.0 0.00 0.00 0.00 42 1015.9
20260502200302 47 349 2.0 6.0 0.00 0.00 0.00 44 1015.9
20260502200223 48 350 2.0 6.0 0.00 0.00 0.00 42 1015.9
20260502200124 48 351 1.0 6.0 0.00 0.00 0.00 41 1015.9
20260502200002 48 341 1.0 4.0 0.00 0.00 0.00 42 1016.0
20260502195902 48 348 1.0 4.0 0.00 0.00 0.00 42 1015.9
20260502195802 47 349 1.0 4.0 0.00 0.00 0.00 43 1015.9
20260502195702 47 350 1.0 4.0 0.00 0.00 0.00 44 1016.0
20260502195602 47 350 1.0 4.0 0.00 0.00 0.00 42 1016.0
20260502195503 47 350 1.0 4.0 0.00 0.00 0.00 43 1015.9
20260502195423 47 355 1.0 4.0 0.00 0.00 0.00 43 1015.9
20260502195323 47 354 1.0 4.0 0.00 0.00 0.00 43 1015.9
20260502195202 47 351 1.0 4.0 0.00 0.00 0.00 42 1016.0
20260502195102 47 354 1.0 4.0 0.00 0.00 0.00 43 1016.0
20260502195002 47 358 1.0 4.0 0.00 0.00 0.00 43 1016.0
20260502194902 47 357 1.0 4.0 0.00 0.00 0.00 43 1016.0
20260502194802 47 356 1.0 4.0 0.00 0.00 0.00 42 1016.0
20260502194723 47 355 1.0 4.0 0.00 0.00 0.00 44 1016.1
20260502194623 47 355 1.0 4.0 0.00 0.00 0.00 44 1016.1
20260502194502 47 353 1.0 6.0 0.00 0.00 0.00 42 1016.1
20260502194423 47 352 1.0 6.0 0.00 0.00 0.00 44 1016.2
20260502194302 47 349 1.0 6.0 0.00 0.00 0.00 43 1016.2
20260502194202 47 349 1.0 6.0 0.00 0.00 0.00 42 1016.2
20260502194102 47 348 2.0 6.0 0.00 0.00 0.00 42 1016.2
20260502194002 47 346 2.0 6.0 0.00 0.00 0.00 42 1016.2
20260502193923 47 346 2.0 6.0 0.00 0.00 0.00 42 1016.2
20260502193802 47 343 2.0 6.0 0.00 0.00 0.00 41 1016.2
20260502193702 48 340 2.0 6.0 0.00 0.00 0.00 44 1016.2
20260502193623 48 339 2.0 6.0 0.00 0.00 0.00 40 1016.2
20260502193502 48 341 2.0 5.0 0.00 0.00 0.00 41 1016.2
20260502193423 48 339 1.0 5.0 0.00 0.00 0.00 42 1016.2
20260502193302 48 332 1.0 5.0 0.00 0.00 0.00 43 1016.2
20260502193202 48 324 1.0 5.0 0.00 0.00 0.00 44 1016.2
20260502193102 48 301 1.0 5.0 0.00 0.00 0.00 40 1016.2
20260502193002 48 280 1.0 5.0 0.00 0.00 0.00 40 1016.2
20260502192902 49 269 1.0 5.0 0.00 0.00 0.00 40 1016.2
20260502192823 49 260 1.0 5.0 0.00 0.00 0.00 41 1016.2
20260502192702 49 238 1.0 8.0 0.00 0.00 0.00 42 1016.1
20260502192602 49 233 1.0 8.0 0.00 0.00 0.00 42 1016.2
20260502192502 49 231 1.0 8.0 0.00 0.00 0.00 42 1016.2
20260502192402 49 237 1.0 8.0 0.00 0.00 0.00 42 1016.1
20260502192305 49 242 1.0 8.0 0.00 0.00 0.00 39 1016.0
20260502192202 49 250 1.0 8.0 0.00 0.00 0.00 40 1016.0
20260502192103 49 257 1.0 8.0 0.00 0.00 0.00 40 1016.2
20260502192002 49 272 1.0 8.0 0.00 0.00 0.00 40 1016.2
20260502191902 49 272 1.0 8.0 0.00 0.00 0.00 40 1016.2
20260502191823 49 271 1.0 8.0 0.00 0.00 0.00 41 1016.2
20260502191702 48 313 1.0 4.0 0.00 0.00 0.00 45 1016.2
20260502191602 48 310 1.0 4.0 0.00 0.00 0.00 45 1016.3
20260502191502 48 316 1.0 4.0 0.00 0.00 0.00 43 1016.3
20260502191402 48 316 1.0 5.0 0.00 0.00 0.00 41 1016.3
20260502191302 48 333 1.0 6.0 0.00 0.00 0.00 43 1016.3
20260502191203 48 345 1.0 6.0 0.00 0.00 0.00 43 1016.3
20260502191102 48 344 1.0 6.0 0.00 0.00 0.00 43 1016.3
20260502191002 48 323 2.0 6.0 0.00 0.00 0.00 44 1016.3
20260502190902 48 321 2.0 6.0 0.00 0.00 0.00 43 1016.3
20260502190802 48 311 2.0 6.0 0.00 0.00 0.00 43 1016.3
20260502190702 48 298 2.0 6.0 0.00 0.00 0.00 42 1016.3
20260502190602 48 295 2.0 6.0 0.00 0.00 0.00 41 1016.3
20260502190502 48 303 2.0 6.0 0.00 0.00 0.00 41 1016.3
20260502190423 48 301 2.0 6.0 0.00 0.00 0.00 40 1016.3
20260502190302 48 292 2.0 6.0 0.00 0.00 0.00 42 1016.3
20260502190223 48 278 2.0 5.0 0.00 0.00 0.00 42 1016.3
20260502190002 48 318 2.0 6.0 0.00 0.00 0.00 42 1016.4
20260502185902 48 333 2.0 6.0 0.00 0.00 0.00 43 1016.4
20260502185802 48 342 2.0 6.0 0.00 0.00 0.00 45 1016.4
20260502185702 48 342 2.0 6.0 0.00 0.00 0.00 45 1016.5
20260502185602 48 345 2.0 6.0 0.00 0.00 0.00 43 1016.5
20260502185502 48 344 2.0 6.0 0.00 0.00 0.00 42 1016.5
20260502185423 48 345 2.0 6.0 0.00 0.00 0.00 43 1016.5
20260502185305 48 345 2.0 6.0 0.00 0.00 0.00 44 1016.4
20260502185223 48 345 2.0 6.0 0.00 0.00 0.00 45 1016.4
20260502185102 47 346 2.0 6.0 0.00 0.00 0.00 43 1016.4
20260502185002 47 345 2.0 4.0 0.00 0.00 0.00 43 1016.4
20260502184902 47 339 2.0 4.0 0.00 0.00 0.00 44 1016.4
20260502184802 47 328 2.0 4.0 0.00 0.00 0.00 44 1016.4
20260502184702 47 328 2.0 6.0 0.00 0.00 0.00 44 1016.5
20260502184602 48 318 2.0 7.0 0.00 0.00 0.00 40 1016.5
20260502184502 48 304 2.0 7.0 0.00 0.00 0.00 40 1016.4
20260502184423 48 299 2.0 7.0 0.00 0.00 0.00 40 1016.4
20260502184302 48 283 1.0 7.0 0.00 0.00 0.00 42 1016.5
20260502184223 48 278 2.0 7.0 0.00 0.00 0.00 41 1016.5
20260502184102 48 273 1.0 7.0 0.00 0.00 0.00 41 1016.5
20260502184002 48 265 2.0 7.0 0.00 0.00 0.00 41 1016.5
20260502183923 48 268 2.0 7.0 0.00 0.00 0.00 44 1016.5
20260502183802 48 285 1.0 7.0 0.00 0.00 0.00 42 1016.5
20260502183702 48 304 1.0 7.0 0.00 0.00 0.00 46 1016.5
20260502183602 48 332 1.0 5.0 0.00 0.00 0.00 46 1016.5
20260502183503 48 333 1.0 5.0 0.00 0.00 0.00 43 1016.5
20260502183402 48 316 2.0 5.0 0.00 0.00 0.00 42 1016.5
20260502183302 48 298 2.0 7.0 0.00 0.00 0.00 42 1016.5
20260502183202 48 280 2.0 7.0 0.00 0.00 0.00 43 1016.5
20260502183102 48 270 2.0 7.0 0.00 0.00 0.00 45 1016.5
20260502183002 48 276 2.0 7.0 0.00 0.00 0.00 45 1016.5
20260502182923 48 277 2.0 7.0 0.00 0.00 0.00 42 1016.5
20260502182802 48 288 2.0 7.0 0.00 0.00 0.00 41 1016.5
20260502182702 48 283 2.0 7.0 0.00 0.00 0.00 41 1016.5
20260502182602 48 271 1.0 7.0 0.00 0.00 0.00 43 1016.4
20260502182502 49 269 1.0 7.0 0.00 0.00 0.00 43 1016.4
20260502182402 49 288 1.0 7.0 0.00 0.00 0.00 40 1016.5
20260502182304 49 317 1.0 4.0 0.00 0.00 0.00 43 1016.5
20260502182202 49 335 1.0 4.0 0.00 0.00 0.00 42 1016.5
20260502182102 49 347 1.0 5.0 0.00 0.00 0.00 42 1016.5
20260502182023 48 349 2.0 5.0 0.00 0.00 0.00 42 1016.5
20260502181902 48 350 2.0 5.0 0.00 0.00 0.00 43 1016.5
20260502181802 48 348 2.0 5.0 0.00 0.00 0.00 44 1016.5
20260502181702 48 346 2.0 5.0 0.00 0.00 0.00 44 1016.6
20260502181624 47 348 2.0 5.0 0.00 0.00 0.00 47 1016.6
20260502181502 47 347 2.0 5.0 0.00 0.00 0.00 45 1016.6
20260502181402 47 344 2.0 5.0 0.00 0.00 0.00 43 1016.6
20260502181302 47 342 2.0 5.0 0.00 0.00 0.00 43 1016.6
20260502181202 47 337 1.0 5.0 0.00 0.00 0.00 42 1016.7
20260502181102 47 328 1.0 4.0 0.00 0.00 0.00 43 1016.6
20260502181002 47 316 1.0 4.0 0.00 0.00 0.00 43 1016.6
20260502180902 47 272 1.0 6.0 0.00 0.00 0.00 42 1016.7
20260502180802 47 250 1.0 6.0 0.00 0.00 0.00 43 1016.7
20260502180723 47 242 2.0 6.0 0.00 0.00 0.00 44 1016.7
20260502180602 47 237 2.0 6.0 0.00 0.00 0.00 42 1016.6
20260502180502 47 232 2.0 6.0 0.00 0.00 0.00 41 1016.6
20260502180423 47 229 2.0 6.0 0.00 0.00 0.00 44 1016.7
20260502180323 47 230 2.0 6.0 0.00 0.00 0.00 40 1016.7
20260502180223 47 227 2.0 6.0 0.00 0.00 0.00 42 1016.7